This is the latest recevied weather packets stored in our database for station/object DL7HMX-13. If no packets are shown the sender has not sent any weather packets the latest 10 day(s).
| Time | Temp. | Humidity | Pressure | Rain* | Wind** | Luminosity | Snow |
|---|---|---|---|---|---|---|---|
| 1777997420 | 25° C | 36% | 1003.6 hPa | 0 mm | - | 119 W/m² | - |
| 1777996827 | 25° C | 35% | 1003.5 hPa | 0 mm | - | 122 W/m² | - |
| 1777996229 | 25.56° C | 34% | 1003.7 hPa | 0 mm | - | 115 W/m² | - |
| 1777995616 | 26.11° C | 33% | 1003.8 hPa | 0 mm | - | 192 W/m² | - |
| 1777995020 | 26.67° C | 32% | 1003.8 hPa | 0 mm | - | 209 W/m² | - |
| 1777994423 | 26.67° C | 31% | 1003.8 hPa | 0 mm | - | 221 W/m² | - |
| 1777993824 | 26.67° C | 31% | 1003.9 hPa | 0 mm | - | 360 W/m² | - |
| 1777993228 | 27.22° C | 31% | 1003.9 hPa | 0 mm | - | 357 W/m² | - |
| 1777992631 | 27.78° C | 30% | 1003.9 hPa | 0 mm | - | 297 W/m² | - |
| 1777992019 | 27.78° C | 30% | 1004 hPa | 0 mm | - | 408 W/m² | - |
| 1777991419 | 27.78° C | 30% | 1004 hPa | 0 mm | - | 480 W/m² | - |
| 1777990822 | 28.33° C | 30% | 1004.2 hPa | 0 mm | - | 406 W/m² | - |
| 1777989628 | 26.67° C | 31% | 1004.5 hPa | 0 mm | - | 528 W/m² | - |
| 1777989031 | 27.78° C | 32% | 1004.6 hPa | 0 mm | - | 505 W/m² | - |
| 1777988418 | 27.78° C | 31% | 1004.7 hPa | 0 mm | - | 586 W/m² | - |
| 1777987820 | 27.22° C | 32% | 1004.7 hPa | 0 mm | - | 579 W/m² | - |
| 1777987223 | 27.22° C | 32% | 1004.8 hPa | 0 mm | - | 612 W/m² | - |
| 1777986626 | 26.67° C | 32% | 1004.9 hPa | 0 mm | - | 613 W/m² | - |
| 1777986029 | 27.78° C | 32% | 1005 hPa | 0 mm | - | 613 W/m² | - |
| 1777985416 | 27.22° C | 32% | 1005.2 hPa | 0 mm | - | 644 W/m² | - |
| 1777984819 | 27.78° C | 32% | 1005.5 hPa | 0 mm | - | 652 W/m² | - |
| 1777984222 | 27.22° C | 33% | 1005.6 hPa | 0 mm | - | 616 W/m² | - |
| 1777983624 | 26.11° C | 38% | 1005.8 hPa | 0 mm | - | 622 W/m² | - |
| 1777983027 | 26.67° C | 38% | 1006 hPa | 0 mm | - | 612 W/m² | - |
| 1777982430 | 26.11° C | 39% | 1006.1 hPa | 0 mm | - | 717 W/m² | - |
* Rain latest hour (hover to see other rain measurements)
** Current wind speed in m/s (hover to see current wind gust speed)